DELTA 1 DEB, 12527

Orbit data source: Space-Track

DELTA 1 DEB, 12527 is space debris in SSO originally from a launch on Thu, 29 Jul 1976 UTC launched from the Air Force Western Test Range (AFWTR). Debris objects in space refer to the collection of defunct objects orbiting the Earth. Examples of debris include non-operational satellites, rocket bodies, and fragments generated from explosions, collisions, or faulty payload assembly.

Loading next visibility...
Identifier
12527, 1976-077DG
Orbit
SSO
Country
Flag of USUS
Related business
Manufacturer
Unknown
Mission
Spacecraft
Bus & Motor
Unknown
Mass
Unknown
Launch date (UTC)
1976-07-29 (49 years ago)
Launch vehicle
Unknown
Launch site
Air Force Western Test Range (AFWTR)
Object type
Payload
Rocket body
Debris
Shape & HBR
Unknown shape, 0.1 m
Radar Cross Section
Medium (>0.1 m² and <1 m²)

Expand to show TLE details & history
Last TLE update: 11 hours ago

TLE from 11 hours ago
0 DELTA 1 DEB
1 12527U 76077DG  26013.18342684  .00000022  00000-0  51767-3 0  9995
2 12527 102.1347 344.5784 0038837 323.1390  57.8949 12.38089438132770
Epoch: 2026-01-13T04:24Z
TLE epoch observation values (Epoch: 2026-01-13T04:24:08.078Z)
Latitude
20.92046°
Longitude
161.18374°
Altitude
1,500.745 km
Speed
7.123 km/s
True Right ascension
22h 39m 32s
True Declination
20° 49' 01"
Sunlit
Object was in daylight at epoch
Visualization orbit readout
Latitude
Unknown
Longitude
Unknown
Altitude
Unknown
Speed
Unknown
Apparent Right ascension
Unknown
Apparent Declination
Unknown
Sunlit
N/A
Visualization observer readout
Local Sidereal Time
16:08:44
Azimuth
Unknown
Elevation
Unknown
Doppler factor
Unknown
Orbital elements
Apogee altitude
1,542.942 km
Perigee altitude
1,481.654 km
Semi-major axis
7,890.435 km
Eccentricity
0.00388
Inclination
102.1347°
RAAN
344.5784°
Arg. of periapsis
323.139°
True anomaly
58.27285°
Mean anomaly
57.8949°
Eccentric anomaly
58.08378°
Mean motion
3.09665 °/min
Orbital period
116.25 mins
BSTAR
0.00051767
Loading maneuver chart data...
Computing Atmospheric mass density...
Loading historical data...
Loading historical data...
Loading historical data...
Loading historical data...
Loading historical data...
Loading historical data...
Loading historical data...

Documentation

Showing up to 5 results
|